Location: downtown San Diego
(32.7310°N, 117.1990°W)
Time: 19:51:54
(UTC-07:00)

Daily predictions for brighter satellites

Satellite Brightness Start Highest point End
(mag) Time Altitude Azimuth Time Altitude Azimuth Time Altitude Azimuth
Cosmos 1953 2.4 20:23:16 10° N 20:27:14 61° E 20:31:11 10° SSE
Cosmos 1655 Rocket 4.0 20:21:01 10° N 20:27:16 74° E 20:33:27 10° S
Aurora 2 Rocket 4.2 20:23:07 10° SW 20:27:57 32° SSE 20:34:31 10° ESE
Envisat 3.5 20:24:38 10° S 20:29:38 62° W 20:34:40 10° NNW
Cosmos 972 4.3 20:27:49 10° S 20:32:49 74° ESE 20:37:41 10° NNE
Cosmos 1943 3.2 20:30:35 10° NNW 20:36:16 78° ENE 20:41:52 10° SSE
Cosmos 1626 Rocket 4.3 20:33:13 10° SSW 20:37:36 59° W 20:42:00 10° N
SJ-6B 3.6 20:34:33 10° S 20:38:20 52° W 20:42:13 10° NNW
Cosmos 1048 Rocket 4.1 20:37:50 10° S 20:43:01 60° ESE 20:48:17 10° NNE
Cosmos 1607 4.0 20:39:36 10° NNW 20:45:59 80° ENE 20:52:12 10° SSE
Meteor 2-11 Rocket 4.4 20:40:05 10° S 20:46:07 78° E 20:52:11 10° N
Cosmos 1400 Rocket 2.9 20:43:35 10° S 20:47:38 80° W 20:51:39 10° N
USA 215 3.7 20:43:26 10° ESE 20:49:43 51° NE 20:56:01 10° NNW
CZ-3 Stage 3 3.0 20:47:25 10° WSW 20:50:18 65° S 21:01:06 10° E
Resurs 1-3 3.6 20:47:33 10° SSE 20:51:55 82° ENE 20:56:19 10° N
Cosmos 1844 Rocket 3.0 20:48:21 10° S 20:53:40 44° ESE 20:59:00 10° NE
Centaur AC-125 3.3 20:52:46 10° SW 20:55:32 18° S 20:56:28 15° SSE
NOAA 11 4.2 20:50:24 10° SSE 20:55:47 70° ENE 21:01:11 10° N
Cosmos 1844 4.3 20:51:59 10° SSE 20:57:03 35° ESE 21:02:11 10° NE
Cosmos 1470 3.5 20:54:30 10° NNW 20:58:19 53° W 21:02:08 10° S
Cosmos 1346 Rocket 4.5 20:56:57 10° NNE 20:59:49 19° ENE 21:01:27 15° ESE
Cosmos 1812 Rocket 3.6 20:55:44 10° N 21:00:05 81° W 21:04:28 10° S
YAOGAN 6 4.2 20:58:54 10° SSW 21:02:07 32° W 21:05:18 10° NNW
Aureole 1 Rocket 2.9 21:00:18 10° SSW 21:03:17 58° WNW 21:06:47 10° N
USA 186 3.6 21:00:37 10° SSW 21:03:33 30° W 21:06:23 10° NW
Cosmos 1953 Rocket 3.8 21:00:06 10° SSE 21:04:17 49° E 21:08:30 10° NNE
Spot 2 Rocket 3.5 20:59:50 10° SSE 21:04:49 74° ENE 21:09:52 10° N
SJ-11-01 4.5 21:01:55 10° S 21:06:40 74° WSW 21:11:25 10° NNW
Cosmos 1758 Rocket 3.5 21:05:06 10° S 21:09:33 75° E 21:13:58 10° N
Cosmos 1452 Rocket 3.5 21:05:10 10° NNW 21:10:29 86° WSW 21:15:08 13° SSE
Cosmos 1420 Rocket 3.9 21:05:35 10° NNW 21:10:47 83° ENE 21:15:02 16° SSE
Meteor 1-24 Rocket 4.0 21:05:09 10° S 21:11:01 59° E 21:16:56 10° NNE
OAO 3 Copernicus 4.3 21:08:03 10° WNW 21:13:08 88° N 21:16:53 18° ESE
Cosmos 1932 4.4 21:10:45 10° NNW 21:16:58 76° ENE 21:21:21 20° SE
Resurs 01 Rocket 2.3 21:13:26 10° S 21:17:43 51° W 21:22:02 10° NNW
OAO 3 Rocket 3.6 21:17:02 10° W 21:21:59 66° N 21:26:27 12° E
Meteor 2-5 Rocket 4.4 21:23:25 10° SSW 21:29:16 61° W 21:35:09 10° N
H-2A R/B 2.3 21:30:37 26° SE 21:33:26 55° ENE 21:38:40 10° N
Cosmos 1340 4.5 21:32:39 10° NNE 21:35:08 17° ENE 21:35:08 17° ENE
Cosmos 921 Rocket 3.8 21:32:46 10° N 21:36:57 37° ENE 21:38:12 31° ESE
SPOT 5 4.2 21:36:22 23° E 21:37:57 27° ENE 21:42:15 10° NNE
Cosmos 1238 Rocket 2.9 21:37:14 21° SSW 21:38:57 49° W 21:41:51 10° N
Cosmos 494 Rocket 3.9 21:35:32 10° SSW 21:40:45 82° ESE 21:46:02 10° NNE
ATLAS 3B R/B 3.8 21:36:56 10° N 21:42:32 28° NE 21:45:53 19° E
Cosmos 1674 2.5 21:42:52 39° S 21:44:10 76° E 21:48:00 10° N
Lacrosse 5 4.4 21:40:29 10° W 21:44:32 24° NW 21:48:35 10° NNE
USA 238 DEB 4.5 21:37:53 10° NNW 21:44:37 42° NE 21:48:21 25° ESE
SL-08 RB Rocket 3.7 21:45:38 36° SSE 21:47:31 75° ENE 21:52:11 10° N
MetOp-B 4.1 21:46:03 31° SSE 21:48:42 78° ENE 21:54:04 10° N
Cosmos 1461 3.4 21:48:41 42° SE 21:49:04 43° ESE 21:53:31 10° NE
Cosmos 1244 Rocket 4.5 21:52:18 10° N 21:58:41 89° ENE 22:02:04 30° S
Centaur D-1AR AC-36 3.5 21:48:53 10° W 21:59:33 27° SSW 22:00:57 24° S
Cosmos 220 Rocket 3.8 21:58:55 54° SSE 21:59:44 71° ESE 22:03:56 10° NNE
SEDSat Delta rocket 3.5 21:56:22 10° SW 22:01:13 46° S 22:01:13 46° S
Cosmos 1745 Rocket 4.4 21:55:23 10° N 22:01:24 46° E 22:03:09 37° ESE
DMSP B5D2-2 3.9 21:57:17 10° NNE 22:02:33 80° ESE 22:04:53 34° S
Cosmos 1726 2.5 21:59:49 10° N 22:03:12 50° ENE 22:03:12 50° ENE
SL-08 R/B 4.5 22:00:01 10° N 22:06:08 66° E 22:08:16 41° SSE
ATLAS 2AS CENTAUR R/B 4.1 21:59:44 10° SW 22:07:06 46° NW 22:14:50 10° NNE
ERS-1 Rocket 2.9 22:06:45 47° SSE 22:08:15 88° ENE 22:13:19 10° NNW
Meteor 2-10 4.2 22:04:47 10° N 22:10:12 61° E 22:11:28 48° SE
Cosmos 2251 Rocket 3.4 22:11:51 40° S 22:13:49 81° ESE 22:19:10 10° NNE
Cosmos 1437 4.4 22:12:43 10° NW 22:15:26 26° W 22:15:38 26° W
Landsat 7 4.1 22:16:59 49° E 22:17:16 50° ENE 22:21:52 10° N
Cosmos 2278 Rocket 2.1 22:16:23 43° S 22:18:16 75° ESE 22:23:56 10° NNE
Cosmos-2242 4.2 22:16:27 10° NNW 22:20:32 39° W 22:21:58 30° SW
Meteor 1-21 Rocket 4.2 22:19:01 45° S 22:20:54 80° E 22:26:44 10° N
ARGOS 4.2 22:18:08 23° SSW 22:20:56 40° W 22:26:01 10° NNW
Cosmos 2084 3.6 22:17:13 10° NW 22:20:45 54° W 22:20:45 54° W
Aurora 2 Rocket 4.1 22:14:58 10° WSW 22:21:26 49° S 22:23:22 42° SE
S3M 4.1 22:19:53 30° SSW 22:23:13 77° W 22:29:37 10° N
CZ-2C R/B 4.0 22:25:43 37° E 22:26:26 38° ENE 22:31:43 10° N
SL-14 R/B 3.8 22:29:02 53° NNE 22:29:02 53° NNE 22:32:06 10° N
Helios 1A 3.0 22:32:09 76° NNW 22:32:09 76° NNW 22:36:03 10° NNW
USA 215 4.1 22:30:40 30° SSW 22:32:43 37° SW 22:38:42 10° WNW
ATLAS 3B CENTAUR R/B 3.6 22:16:41 10° WSW 22:34:45 53° S 22:37:27 42° SE
Cosmos 1709 Rocket 4.5 22:28:58 10° N 22:34:46 41° E 22:35:09 40° E
Cosmos 1842 Rocket 3.6 22:31:46 10° N 22:35:49 76° NW 22:35:49 76° NW
Terra 2.2 22:37:00 50° ENE 22:37:00 50° ENE 22:41:17 10° N
COSMOS 2406 3.1 22:32:55 10° NNW 22:38:42 80° WSW 22:39:30 66° S
Helios 1B rocket 2.8 22:37:31 10° N 22:41:10 62° NW 22:41:10 62° NW
NOSS 2-2 (E) 4.4 22:44:22 38° NNE 22:44:22 38° NNE 22:47:05 10° NNE
NOSS 3-4 (A) 3.7 22:39:15 15° SW 22:44:25 68° WNW 22:50:44 10° NNE
NOSS 3-4 (C) 3.6 22:39:34 16° SW 22:44:30 69° WNW 22:50:49 10° NNE
CENTAUR R/B 4.3 22:43:42 10° N 22:50:39 30° NE 22:54:21 22° E
Cosmos 1375 Rocket 4.4 22:44:37 10° NNW 22:51:13 78° ENE 22:52:04 67° ESE
ATLAS 5 CENTAUR R/B 2.1 22:57:11 57° NNW 22:57:11 57° NNW 23:01:13 10° NNE
Cosmos 1626 4.0 23:02:05 28° N 23:02:05 28° N 23:03:57 10° N
Cosmos 2297 4.1 23:02:34 52° ENE 23:02:34 52° ENE 23:07:07 10° NNE
Cosmos 2315 Rocket 3.9 23:04:20 75° SSW 23:04:55 88° W 23:11:18 10° N
OAO 3 Rocket 4.0 23:00:45 10° WNW 23:04:14 46° WNW 23:04:14 46° WNW
Cosmos 2221 3.6 23:05:52 10° NNW 23:08:55 43° NNW 23:08:55 43° NNW
Cosmos 2082 Rocket 3.1 23:05:54 10° N 23:10:56 37° ENE 23:10:56 37° ENE
H-2A R/B 4.4 23:11:14 12° WSW 23:13:08 14° W 23:15:56 10° WNW
Cosmos 1833 Rocket 3.3 23:08:27 10° N 23:13:23 44° NE 23:13:23 44° NE
SPOT 5 4.4 23:15:36 29° W 23:15:49 29° W 23:20:18 10° NW
RESURS DK-1 4.3 23:20:00 25° NNE 23:20:00 25° NNE 23:21:47 10° NNE
CZ-2C R/B 2.8 23:16:27 10° N 23:21:22 68° NW 23:21:22 68° NW
ATLAS 3B R/B 3.1 23:27:06 10° NW 23:33:08 46° WSW 23:33:08 46° WSW
EO 1 Delta rocket 4.5 23:29:41 10° N 23:35:32 66° NW 23:35:32 66° NW
NOSS 3-2 (A) 4.4 23:40:26 10° NW 23:47:59 51° WSW 23:48:27 51° SW
